Date,TemperatureHighF,TemperatureAvgF,TemperatureLowF,DewpointHighF,DewpointAvgF,DewpointLowF,HumidityHigh,HumidityAvg,HumidityLow,PressureMaxIn,PressureMinIn,WindSpeedMaxMPH,WindSpeedAvgMPH,GustSpeedMaxMPH,PrecipitationSumIn
2013-1-1,27.9,20.2,9.9,22.2,17.6,7.8,94,90,78,30.29,30.11,13,3,0,0.00
2013-1-2,35.2,21.9,10.9,29.4,18.8,9.0,95,88,73,30.30,30.16,6,1,0,0.00
2013-1-3,36.2,23.6,15.2,26.5,19.6,13.3,95,85,62,30.47,30.30,5,1,0,0.01
2013-1-4,44.0,28.9,13.3,28.9,22.3,11.8,96,78,53,30.42,30.21,10,2,0,0.00
2013-1-5,47.7,36.4,26.5,33.0,28.1,20.9,87,73,51,30.25,30.05,13,4,0,0.00
2013-1-6,51.0,33.6,19.7,27.2,22.6,17.0,91,67,35,30.39,30.22,7,1,0,0.00
2013-1-7,52.9,38.4,26.9,28.1,24.4,20.4,77,59,36,30.22,29.97,13,4,0,0.00
2013-1-8,56.4,40.2,31.0,35.1,30.1,25.0,87,69,42,30.15,29.90,11,3,0,0.00
2013-1-9,52.7,44.7,28.7,35.2,32.7,25.1,87,63,48,30.37,30.18,12,3,0,0.00
2013-1-10,46.9,44.1,40.5,46.4,42.3,33.7,98,94,61,30.18,29.67,8,2,0,0.41
2013-1-11,58.3,49.3,37.8,48.8,43.0,24.1,99,81,37,29.77,29.46,13,5,0,0.00
2013-1-12,37.4,26.7,20.1,32.1,17.8,10.1,87,69,56,30.11,29.77,15,6,0,0.00
2013-1-13,29.4,18.8,11.2,10.6,8.4,6.0,83,65,39,30.36,30.09,11,3,0,0.00
2013-1-14,31.4,20.0,9.2,15.5,11.2,6.3,90,70,44,30.50,30.33,9,1,0,0.00
2013-1-15,34.5,21.6,11.5,15.4,12.4,8.6,90,70,42,30.36,30.20,7,1,0,0.00
2013-1-16,53.7,31.1,15.6,32.9,22.2,11.0,86,71,44,30.23,30.06,6,1,0,0.00
2013-1-17,55.9,39.0,24.2,33.9,28.6,21.9,92,69,39,30.47,30.23,4,1,0,0.00
2013-1-18,59.4,43.7,30.6,34.6,30.9,26.8,86,63,36,30.36,29.99,20,5,0,0.00
2013-1-19,62.9,43.1,29.9,34.1,28.8,22.5,90,61,25,30.18,29.96,11,2,0,0.00
2013-1-20,51.0,35.7,24.6,30.3,23.3,10.1,90,62,44,30.35,30.12,16,4,0,0.00
2013-1-21,37.3,25.5,12.7,15.6,12.8,8.9,87,60,38,30.40,30.24,8,1,0,0.00
2013-1-22,45.3,27.6,16.1,22.8,16.6,10.6,80,65,40,30.29,30.15,9,2,0,0.00
2013-1-23,56.0,34.4,17.4,33.0,23.0,13.9,91,66,39,30.29,30.10,13,2,0,0.00
2013-1-24,29.8,24.0,19.5,22.5,15.7,10.4,93,71,51,30.33,30.08,14,4,0,0.00
2013-1-25,50.1,34.7,18.9,28.4,23.3,16.5,93,65,40,30.25,30.12,5,0,0,0.00
2013-1-26,56.4,42.8,28.0,41.8,32.0,23.2,92,67,40,30.20,29.94,13,4,0,0.01
2013-1-27,68.6,52.3,42.3,56.3,48.9,41.1,98,89,63,29.94,29.63,16,6,0,0.00
2013-1-28,73.1,60.2,48.7,60.3,53.0,46.2,98,80,40,29.73,29.52,20,5,0,0.01
2013-1-29,64.1,42.1,33.4,60.1,38.6,31.6,94,88,73,29.59,29.42,11,3,0,0.02
2013-1-30,33.8,27.8,18.6,31.7,22.5,15.4,94,81,56,29.97,29.58,13,3,0,0.00
2013-1-31,29.0,22.6,13.0,23.3,16.0,7.5,91,75,60,30.44,29.94,18,4,0,0.00
2013-2-1,37.6,23.2,11.0,14.0,10.0,7.0,85,60,33,30.42,30.15,10,2,0,0.00
2013-2-2,57.3,39.5,24.9,36.1,26.2,13.2,93,61,34,30.27,30.15,6,2,0,0.00
2013-2-3,56.6,42.6,21.0,31.0,25.4,17.0,87,54,29,30.23,29.79,12,3,0,0.00
2013-2-4,54.7,42.4,27.8,32.3,29.2,23.8,89,61,40,29.91,29.74,14,3,0,0.00
2013-2-5,64.1,43.1,25.1,34.3,26.7,22.3,92,59,23,29.99,29.86,10,2,0,0.00
2013-2-6,57.7,48.6,37.0,54.3,42.0,29.2,97,79,54,29.98,29.75,11,4,0,0.00
2013-2-7,54.3,47.2,34.5,51.4,41.6,29.5,98,82,55,30.14,29.74,19,4,0,0.17
2013-2-8,45.4,33.8,25.4,35.5,29.9,24.2,97,86,67,30.28,30.09,8,2,0,0.00
2013-2-9,49.8,39.3,32.3,42.5,36.0,30.0,98,88,71,30.09,29.58,15,6,0,0.00
2013-2-10,51.1,42.3,31.3,44.9,32.3,24.7,98,70,44,30.01,29.43,17,6,0,0.00
2013-2-11,46.1,33.8,25.1,25.3,21.4,18.5,84,63,34,30.19,30.01,11,2,0,0.00
2013-2-12,41.1,33.8,26.0,30.3,24.6,20.6,95,70,51,30.14,29.97,7,1,0,0.00
2013-2-13,59.2,39.1,22.8,30.3,24.6,19.3,96,63,22,29.98,29.84,14,3,0,0.00
2013-2-14,51.1,39.6,31.0,33.4,28.2,18.9,86,64,43,30.24,29.88,12,2,0,0.00
2013-2-15,42.5,30.3,18.3,21.9,17.2,12.7,87,60,33,30.39,30.25,12,2,0,0.00
2013-2-16,49.2,31.4,12.0,30.9,19.3,7.9,86,63,37,30.36,29.97,16,3,0,0.00
2013-2-17,68.6,44.7,24.3,35.0,29.0,22.1,95,63,22,29.97,29.60,16,3,0,0.00
2013-2-18,39.8,31.6,25.7,21.8,19.1,17.2,70,60,48,30.08,29.95,4,1,0,0.00
2013-2-19,44.3,31.7,19.4,19.5,16.9,11.0,86,56,36,30.31,30.08,10,2,0,0.00
2013-2-20,31.9,28.2,23.4,29.3,20.0,6.7,96,76,37,30.22,29.97,10,4,0,0.02
2013-2-21,26.1,22.4,14.1,24.9,21.0,12.2,96,94,92,29.97,29.68,12,4,0,0.00
2013-2-22,27.1,15.2,4.8,21.0,11.7,2.3,95,86,72,30.14,29.90,5,1,0,0.10
2013-2-23,35.9,20.0,2.4,25.3,15.1,-0.2,95,82,62,30.12,29.91,6,1,0,0.06
2013-2-24,44.6,34.0,24.4,34.3,27.5,20.1,86,77,63,29.90,29.73,10,4,0,0.00
2013-2-25,35.1,32.1,30.2,31.5,30.5,29.2,98,94,86,29.83,29.63,23,10,0,0.00
2013-2-26,38.0,29.5,21.2,32.3,27.1,19.2,98,91,75,29.90,29.68,12,2,0,0.21
2013-2-27,38.7,30.3,23.0,28.7,25.5,21.0,95,83,64,30.16,29.90,8,2,0,0.03
2013-2-28,37.7,30.1,21.5,29.9,25.4,18.6,90,83,71,30.22,30.15,10,2,0,0.00
2013-3-1,36.7,27.7,16.3,27.3,22.9,14.4,94,82,66,30.34,30.19,11,2,0,0.00
2013-3-2,39.6,26.9,13.5,26.8,20.5,11.5,93,78,55,30.36,30.13,4,1,0,0.00
2013-3-3,53.7,41.3,29.3,40.5,32.6,25.0,86,72,58,30.13,29.55,8,3,0,0.00
2013-3-4,44.7,40.3,34.7,38.2,34.9,30.9,94,81,68,30.03,29.49,18,4,0,0.01
2013-3-5,36.5,30.8,26.0,33.8,22.7,19.1,94,72,59,30.36,30.02,13,3,0,0.00
2013-3-6,45.3,33.8,21.6,28.7,22.9,18.5,89,66,45,30.40,30.13,8,2,0,0.00
2013-3-7,66.0,48.1,32.2,33.5,28.9,24.6,76,51,27,30.13,29.92,16,5,0,0.00
2013-3-8,59.7,51.3,42.7,48.4,40.8,31.7,81,67,54,29.99,29.79,14,5,0,0.00
2013-3-9,58.8,53.5,40.4,57.3,51.3,38.8,98,92,79,29.80,29.45,14,4,0,0.55
2013-3-10,40.4,32.2,28.7,38.8,28.7,22.3,95,87,76,30.01,29.51,20,6,0,0.00
2013-3-11,49.7,34.3,21.6,31.5,22.8,18.1,86,65,34,30.01,29.92,6,2,0,0.00
2013-3-12,53.9,43.5,35.6,37.3,31.0,25.5,89,63,40,30.26,29.99,10,2,0,0.01
2013-3-16,50.2,43.9,36.3,37.9,33.9,29.6,77,68,59,29.91,29.79,22,10,0,0.00
2013-3-17,41.3,37.5,34.7,36.0,32.3,28.3,95,82,74,29.92,29.62,22,4,0,0.00
2013-3-18,58.6,44.3,35.1,37.3,30.4,21.8,96,64,25,29.97,29.69,16,2,0,0.00
2013-3-19,53.9,41.2,26.6,31.1,23.1,19.4,87,51,29,30.23,29.95,12,2,0,0.00
2013-3-20,48.2,37.4,26.7,30.2,21.9,15.1,95,58,32,30.37,29.96,14,3,0,0.00
2013-3-21,49.2,39.4,33.7,30.2,23.3,18.2,86,54,37,29.97,29.64,19,6,0,0.00
2013-3-22,48.8,37.5,30.5,35.4,31.7,28.9,95,80,59,29.91,29.78,10,3,0,0.00
2013-3-23,35.8,32.9,30.0,33.2,31.4,29.0,97,94,83,29.91,29.77,18,5,0,0.14
2013-3-24,35.3,28.4,21.7,29.2,24.1,20.5,97,85,61,30.15,29.89,18,4,0,0.04
2013-3-25,37.2,27.9,20.9,23.3,19.5,16.4,86,71,53,30.37,30.14,11,2,0,0.00
2013-3-26,48.0,32.8,15.3,28.1,21.8,13.2,93,66,42,30.42,30.17,10,2,0,0.00
2013-3-27,62.7,46.7,35.4,38.9,30.2,22.8,77,54,33,30.17,30.00,13,4,0,0.00
2013-3-28,67.6,49.3,33.3,49.5,39.7,30.8,91,72,47,30.10,29.98,8,2,0,0.00
2013-3-29,72.0,58.4,41.5,56.9,50.4,40.2,97,76,53,30.05,29.92,10,2,0,0.00
2013-3-30,74.8,59.6,51.8,60.6,54.4,49.9,95,84,51,29.92,29.75,12,2,0,0.13
2013-3-31,67.5,54.9,40.0,52.5,44.3,38.0,98,71,37,29.97,29.84,16,1,0,0.02
2013-4-1,50.1,39.7,35.1,40.4,33.8,28.4,92,80,65,30.20,29.86,20,5,0,0.13
2013-4-2,41.5,37.0,32.5,31.8,29.0,26.1,88,73,57,30.25,30.16,12,2,0,0.11
2013-4-3,38.8,37.5,33.2,34.5,32.2,26.9,92,81,64,30.29,30.18,9,2,0,0.05
2013-4-4,58.4,45.6,36.7,44.0,38.7,34.2,94,78,55,30.20,30.05,7,1,0,0.00
2013-4-5,64.5,50.6,35.1,48.9,42.2,33.5,96,75,52,30.09,29.74,18,4,0,0.00
2013-4-6,78.0,61.5,52.3,52.7,47.0,43.6,79,62,32,29.76,29.61,17,4,0,0.00
2013-4-7,69.8,58.6,46.9,59.3,52.3,42.4,94,80,64,29.76,29.54,13,3,0,0.00
2013-4-8,72.0,64.7,58.4,62.8,60.0,56.8,96,85,70,29.58,29.44,16,5,0,0.00
2013-4-9,73.9,57.0,31.7,64.3,52.5,30.4,95,85,63,29.92,29.42,24,5,0,0.06
2013-4-10,32.2,30.8,29.3,30.9,29.2,27.8,95,94,91,29.94,29.76,14,2,0,0.04
2013-4-11,55.5,38.1,26.5,39.1,31.5,24.9,94,79,46,29.94,29.68,11,2,0,0.11
2013-4-12,58.7,41.9,28.8,41.7,33.1,26.7,94,73,44,29.98,29.81,9,1,0,0.00
2013-4-13,71.8,54.2,34.7,53.5,43.4,32.6,93,69,43,30.00,29.51,16,4,0,0.00
2013-4-14,74.3,62.7,54.0,58.8,46.7,30.9,75,57,34,29.62,29.35,21,6,0,0.00
2013-4-15,55.7,51.2,45.0,40.3,34.4,30.3,64,53,42,29.86,29.62,17,6,0,0.00
2013-4-16,47.4,43.7,41.2,40.6,35.7,29.8,95,74,57,30.00,29.83,17,7,0,0.02
2013-4-17,45.2,42.6,39.5,44.7,41.8,38.5,98,97,94,29.92,29.62,18,4,0,0.13
2013-4-18,39.6,39.6,39.6,38.6,38.6,38.6,96,96,96,29.66,29.65,9,4,0,0.00
2013-4-19,65.3,53.7,38.1,38.6,35.2,29.8,81,53,31,30.02,29.96,11,2,0,0.00
2013-4-20,62.0,49.5,34.3,40.9,35.9,30.5,87,62,40,30.04,29.90,14,4,0,0.00
2013-4-21,68.3,59.1,49.0,45.9,42.1,36.4,70,54,39,30.06,29.94,18,5,0,0.00
2013-4-22,72.6,55.6,35.9,58.4,46.7,34.9,97,73,58,30.01,29.69,24,6,0,0.20
2013-4-23,35.9,32.4,30.5,34.9,30.2,27.8,97,91,79,30.25,29.89,27,8,0,0.05
2013-4-24,58.4,42.0,24.8,39.5,31.8,23.6,97,71,35,30.29,30.15,7,1,0,0.02
2013-4-25,67.8,52.4,36.2,44.0,37.7,31.5,85,60,35,30.25,29.94,16,4,0,0.00
2013-4-26,56.7,51.4,49.7,49.3,46.6,36.7,96,85,48,30.06,29.96,14,3,0,0.24
2013-4-27,66.5,53.9,48.0,55.6,50.3,47.5,98,88,63,30.07,29.91,9,2,0,0.01
2013-4-28,80.7,61.9,45.5,60.7,52.9,44.7,98,76,37,29.93,29.65,15,3,0,0.01
2013-4-29,85.0,70.5,58.0,64.1,58.0,51.5,94,67,40,29.67,29.46,15,4,0,0.00
2013-4-30,82.5,71.9,61.5,64.7,58.2,52.0,84,63,46,29.62,29.52,18,6,0,0.00
2013-5-1,70.7,55.4,37.5,63.5,49.8,34.9,95,82,62,30.18,29.62,27,7,0,0.00
2013-5-2,49.8,39.6,33.7,36.6,33.1,26.1,96,80,41,30.43,30.14,24,9,0,0.04
2013-5-3,57.8,44.4,31.3,39.3,32.7,28.7,91,67,37,30.35,29.95,14,2,0,0.00
2013-5-4,50.0,42.6,35.5,41.2,35.6,29.4,91,76,64,30.06,29.87,20,6,0,0.00
2013-5-5,63.4,49.8,41.9,53.3,45.5,40.0,97,86,63,30.12,30.00,15,2,0,0.00
2013-5-6,68.1,53.2,41.7,56.2,48.7,40.9,98,86,60,30.08,29.94,10,2,0,0.00
2013-5-7,71.8,60.0,47.1,59.1,52.5,45.7,98,78,56,29.99,29.80,13,2,0,0.00
2013-5-8,77.8,64.6,56.4,66.4,57.8,50.4,95,80,59,29.91,29.64,15,4,0,0.48
2013-5-9,74.8,63.7,53.8,65.1,57.2,52.6,97,81,58,29.90,29.66,14,1,0,0.10
2013-5-10,69.5,59.0,50.2,57.7,52.9,48.5,97,82,54,30.00,29.88,14,3,0,0.00
2013-5-11,67.2,56.2,42.0,53.2,44.7,37.0,98,70,35,30.18,30.00,26,4,0,0.00
2013-5-12,70.0,54.9,40.2,48.7,42.2,35.8,91,65,40,30.20,29.98,13,2,0,0.01
2013-5-13,83.5,66.0,45.8,61.8,53.1,42.4,89,65,40,30.01,29.83,9,2,0,0.00
2013-5-14,88.7,73.9,59.8,62.4,54.2,46.9,74,52,26,29.83,29.68,16,4,0,0.00
2013-5-15,81.4,68.4,60.5,66.4,59.7,54.9,93,74,55,29.75,29.67,13,3,0,0.00
2013-5-16,77.0,67.2,58.0,64.7,61.2,56.3,98,82,58,29.75,29.67,11,1,0,0.00
2013-5-17,81.4,69.1,56.0,67.4,62.4,54.9,98,81,58,29.79,29.70,10,2,0,0.00
2013-5-18,84.1,74.5,65.9,74.5,69.2,59.0,95,84,57,29.74,29.47,15,3,0,0.00
2013-5-19,81.1,68.2,60.8,72.0,63.3,57.8,96,85,67,29.65,29.36,16,3,0,1.28
2013-5-20,80.5,67.2,53.9,65.6,58.1,52.5,96,75,49,29.69,29.51,8,1,0,0.00
2013-5-21,75.5,62.8,51.4,55.9,51.4,47.5,90,69,40,29.75,29.62,8,1,0,0.00
2013-5-22,79.0,62.9,48.5,59.7,52.9,46.8,94,72,42,29.84,29.70,9,1,0,0.00
2013-5-23,72.5,61.4,52.9,60.5,54.7,50.3,93,79,59,30.06,29.84,15,2,0,0.00
2013-5-24,76.8,66.5,56.1,68.6,60.7,53.2,91,82,72,30.10,29.93,13,3,0,0.00
2013-5-25,81.7,72.6,64.4,68.9,65.7,62.6,95,80,61,29.98,29.81,14,4,0,0.00
2013-5-26,81.7,72.4,64.7,71.8,67.2,62.6,94,84,69,29.87,29.71,18,5,0,0.00
2013-5-27,81.5,74.8,70.0,72.4,69.4,67.5,94,84,70,29.70,29.46,20,6,0,0.00
2013-5-28,85.5,75.5,69.8,75.0,69.5,66.5,93,82,67,29.60,29.44,19,5,0,0.00
2013-5-29,79.4,71.5,61.2,70.2,66.4,59.0,94,84,71,29.58,29.39,19,7,0,0.05
2013-5-30,80.2,67.5,57.4,67.8,61.5,56.8,98,83,55,29.62,29.39,20,2,0,1.72
2013-5-31,80.8,71.8,63.0,69.3,65.8,58.5,98,83,54,29.63,29.49,12,1,0,0.00
2013-6-1,72.5,64.4,55.4,63.3,55.3,49.7,94,73,58,29.96,29.59,13,2,0,0.02
2013-6-2,71.0,59.8,49.1,53.3,49.5,46.3,92,71,45,30.05,29.90,13,3,0,0.00
2013-6-3,80.6,66.0,51.7,63.3,56.6,50.1,95,74,45,29.92,29.61,18,4,0,0.00
2013-6-4,84.4,73.9,63.7,70.7,65.4,60.0,93,76,60,29.79,29.57,22,2,0,0.00
2013-6-5,71.3,67.0,59.0,66.4,62.9,55.6,97,87,74,29.90,29.67,16,3,0,0.54
2013-6-6,75.0,64.2,54.3,57.9,54.6,51.3,94,74,47,29.92,29.85,14,2,0,0.00
2013-6-7,81.3,66.7,52.4,61.8,55.9,50.4,97,71,42,29.93,29.77,7,1,0,0.00
2013-6-8,82.9,69.9,60.5,64.0,59.5,56.6,96,72,46,29.79,29.56,16,4,0,0.14
2013-6-9,89.3,72.5,57.2,67.4,60.4,52.5,99,70,35,29.80,29.69,7,1,0,0.00
2013-6-10,97.8,79.6,61.0,72.4,65.7,59.3,96,66,39,29.75,29.61,10,2,0,0.00
2013-6-11,97.2,83.7,69.2,69.0,62.5,54.2,76,52,28,29.72,29.58,19,5,0,0.00
2013-6-12,100.1,85.1,73.6,75.3,68.9,65.6,82,61,35,29.79,29.63,14,3,0,0.00
2013-6-13,89.5,76.9,63.2,69.9,63.0,55.4,78,63,49,29.93,29.78,14,3,0,0.00
2013-6-14,99.1,83.6,68.5,73.4,66.6,58.3,91,61,28,29.83,29.67,14,3,0,0.00
2013-6-15,91.0,80.2,72.4,69.0,65.9,60.5,78,63,38,29.81,29.68,17,3,0,0.00
2013-6-17,83.9,77.1,66.2,69.7,66.3,63.5,94,71,54,29.90,29.81,10,2,0,0.19
2013-6-18,90.2,76.3,62.0,70.5,63.0,52.8,98,68,30,29.92,29.79,13,1,0,0.14
2013-6-19,84.8,75.8,64.2,70.7,66.3,60.2,95,74,53,29.89,29.75,13,3,0,0.35
2013-6-20,94.7,81.8,70.7,73.8,70.0,67.3,91,70,45,29.81,29.67,22,6,0,0.00
2013-6-21,95.8,84.6,74.8,72.1,69.1,66.9,78,61,40,29.77,29.68,19,6,0,0.00
2013-6-22,93.8,83.3,73.9,69.3,66.7,61.8,80,59,39,29.76,29.63,26,6,0,0.00
2013-6-23,94.8,83.1,75.0,69.6,67.0,61.2,78,60,36,29.72,29.62,18,6,0,0.00
2013-6-24,93.7,82.6,73.8,71.3,67.6,65.6,88,62,42,29.77,29.60,19,5,0,0.06
2013-6-25,97.5,84.1,74.5,73.5,69.9,66.8,87,65,38,29.74,29.51,20,6,0,0.01
2013-6-26,102.0,87.2,73.7,74.1,70.3,62.2,86,61,29,29.74,29.60,9,2,0,0.00
2013-6-27,106.0,86.4,72.2,75.9,72.3,65.7,94,68,29,29.82,29.60,29,2,0,0.56
2013-6-28,93.4,80.4,68.4,72.5,66.3,59.3,95,66,37,29.91,29.77,14,2,0,0.00
2013-6-29,88.3,77.5,66.1,62.7,57.7,51.4,77,53,33,29.86,29.73,16,3,0,0.00
2013-6-30,81.8,71.1,58.6,60.5,55.2,50.1,89,60,35,29.95,29.81,18,4,0,0.00
2013-7-1,82.1,68.7,56.2,57.8,52.4,45.1,89,60,30,30.04,29.95,15,3,0,0.00
2013-7-2,84.7,70.6,54.8,57.5,51.2,41.6,85,54,23,30.03,29.93,12,2,0,0.00
2013-7-3,86.3,70.0,57.2,59.3,52.9,48.4,85,58,30,30.01,29.84,9,1,0,0.00
2013-7-4,92.5,75.7,60.1,60.2,55.0,49.7,78,51,25,29.90,29.76,13,2,0,0.00
2013-7-5,90.7,79.5,65.9,62.6,59.7,54.9,81,53,35,29.81,29.68,20,5,0,0.00
2013-7-6,84.6,75.8,68.0,70.3,65.2,61.3,90,70,58,29.79,29.68,18,4,0,0.07
2013-7-7,98.3,85.7,76.0,66.2,64.0,59.9,68,51,30,29.82,29.72,14,5,0,0.00
2013-7-8,100.4,86.1,73.7,69.7,66.0,60.9,74,54,28,29.88,29.76,13,4,0,0.00
2013-7-9,105.8,89.9,75.7,71.5,67.1,61.5,79,52,24,29.84,29.67,13,4,0,0.02
2013-7-10,99.2,86.0,70.1,72.7,67.4,63.6,88,58,33,29.84,29.74,11,2,0,0.03
2013-7-11,93.1,82.9,75.9,72.2,67.7,63.3,75,61,41,29.90,29.75,16,2,0,0.00
2013-7-12,99.9,85.9,72.4,71.8,67.0,63.1,75,55,36,29.82,29.72,14,3,0,0.00
2013-7-13,99.1,82.9,74.6,72.0,70.0,68.5,83,67,38,29.81,29.77,13,3,0,0.00
2013-7-20,98.3,78.4,71.1,70.7,67.9,61.2,94,76,30,29.75,29.64,12,4,0,0.08
2013-7-21,90.1,77.8,69.0,74.8,71.1,67.8,97,81,56,29.76,29.65,9,2,0,0.28
2013-7-22,83.9,76.6,71.8,74.9,70.2,64.7,94,81,59,29.77,29.63,19,2,0,0.27
2013-7-23,93.6,81.4,67.4,74.4,69.8,63.0,96,70,50,29.79,29.59,21,2,0,0.19
2013-7-24,88.3,75.9,67.3,72.9,68.0,60.6,97,79,42,29.91,29.75,12,2,0,0.18
2013-7-25,86.5,76.4,66.9,73.9,69.0,63.6,93,79,59,29.93,29.84,10,2,0,0.00
2013-7-26,84.6,73.8,65.5,71.0,66.9,61.1,99,81,50,29.95,29.84,17,3,0,1.37
2013-7-27,79.9,69.3,59.3,63.9,59.7,55.5,94,73,54,30.00,29.84,10,2,0,0.13
2013-7-28,65.0,62.7,60.1,63.9,61.6,58.7,98,96,93,29.94,29.83,10,1,0,1.26
2013-7-29,84.7,72.9,62.6,76.6,69.0,60.8,95,88,73,29.89,29.69,13,3,0,0.03
2013-7-30,80.8,73.8,70.0,73.9,71.2,69.0,99,92,78,29.96,29.80,10,2,0,0.00
2013-7-31,85.2,76.1,65.8,73.0,70.0,65.2,98,83,58,30.01,29.91,7,1,0,0.01
2013-8-1,88.0,77.2,63.9,73.1,68.6,63.3,99,77,52,29.99,29.78,13,1,0,0.00
2013-8-2,93.8,79.7,67.9,80.5,74.1,66.8,98,84,62,29.80,29.64,15,2,0,1.17
2013-8-3,86.9,78.4,72.1,77.2,73.4,68.1,97,85,68,29.90,29.73,12,2,0,0.18
2013-8-4,78.3,73.3,69.8,74.9,71.8,69.0,98,95,87,29.98,29.85,10,1,0,2.52
2013-8-5,91.3,80.3,71.8,78.9,74.6,70.9,98,84,61,29.86,29.63,10,1,0,0.00
2013-8-14,67.4,67.2,67.0,63.2,63.0,62.8,87,86,86,29.98,29.97,3,1,0,0.02
2013-8-15,83.7,70.5,61.7,72.4,64.7,58.6,97,83,65,29.98,29.81,20,2,0,0.42
2013-8-16,80.9,69.3,60.4,69.5,64.4,59.8,99,86,62,30.01,29.91,7,0,0,0.02
2013-8-17,80.5,70.3,61.2,67.3,62.8,59.5,94,78,58,30.05,29.93,8,1,0,0.00
2013-8-18,82.9,71.4,60.6,68.1,62.7,57.7,91,75,54,30.03,29.90,10,2,0,0.00
2013-8-19,87.0,75.2,65.0,70.7,66.7,62.6,94,76,55,29.96,29.83,11,2,0,0.00
2013-8-20,90.5,76.5,66.1,70.7,66.8,64.0,93,75,46,29.91,29.81,10,2,0,0.00
2013-8-23,92.0,84.1,77.8,74.5,72.6,67.3,80,69,45,29.86,29.79,10,3,0,0.00
2013-8-24,92.6,81.6,71.5,74.2,71.4,68.9,92,73,49,29.95,29.86,10,3,0,0.00
2013-8-25,94.8,81.9,71.5,73.9,70.3,65.9,91,71,41,30.02,29.92,9,2,0,0.00
2013-8-26,94.0,82.5,72.0,71.5,69.3,67.0,91,67,42,30.01,29.89,12,3,0,0.00
2013-8-27,94.1,81.1,69.7,69.1,66.1,59.5,92,64,33,29.93,29.83,10,2,0,0.00
2013-8-28,91.9,79.4,66.3,74.1,70.1,64.9,98,75,53,29.90,29.82,7,1,0,0.00
2013-8-29,98.5,84.4,71.4,71.4,67.3,61.9,89,61,31,29.88,29.78,8,2,0,0.00
2013-8-30,102.3,85.0,70.7,71.7,66.4,59.1,87,59,25,29.82,29.67,8,1,0,0.00
2013-8-31,102.7,84.4,68.6,71.7,67.4,61.7,89,61,27,29.73,29.60,7,1,0,0.00
2013-9-1,87.7,79.6,73.6,73.8,68.9,65.9,84,70,59,29.81,29.62,11,2,0,0.01
2013-9-2,86.0,77.5,61.5,62.2,59.5,57.0,90,56,39,29.95,29.85,8,1,0,0.00
2013-9-3,89.6,72.2,54.6,64.8,59.5,53.6,99,69,35,29.99,29.87,5,1,0,0.00
2013-9-4,91.3,74.0,55.9,64.9,58.6,49.4,98,64,25,30.02,29.92,6,1,0,0.00
2013-9-5,93.4,79.3,63.8,67.8,64.1,60.9,92,62,38,30.02,29.91,6,1,0,0.00
2013-9-6,97.0,81.9,68.4,68.8,65.6,63.7,86,61,34,29.97,29.80,7,2,0,0.00
2013-9-7,101.0,84.2,70.3,69.4,65.7,61.6,84,58,28,29.85,29.73,7,2,0,0.00
2013-9-8,100.1,84.7,68.6,69.6,64.0,61.1,84,53,29,29.78,29.67,10,2,0,0.00
2013-9-9,95.2,82.6,68.6,66.5,60.7,53.3,76,50,26,29.78,29.70,13,3,0,0.00
2013-9-10,94.7,81.9,69.8,68.0,61.7,56.1,75,52,33,29.93,29.78,12,3,0,0.00
2013-9-11,94.4,80.4,67.2,68.9,62.8,58.3,80,57,33,29.98,29.86,10,2,0,0.00
2013-9-12,78.0,73.3,69.6,70.5,68.4,66.6,95,85,73,30.02,29.94,8,3,0,0.00
2013-9-13,78.0,70.7,66.6,68.5,53.5,49.8,95,56,41,30.03,29.90,9,2,0,0.00
2013-9-14,86.0,72.2,57.9,63.7,57.2,49.6,76,60,46,29.93,29.77,11,2,0,0.00
2013-9-15,93.7,76.1,65.9,68.3,63.4,60.2,95,68,34,29.95,29.77,13,3,0,0.06
2013-9-16,73.6,68.3,65.0,69.7,66.6,64.4,98,94,86,30.04,29.94,9,2,0,0.09
2013-9-17,83.4,72.8,66.0,71.2,68.1,65.4,98,87,63,30.02,29.78,12,3,0,0.15
2013-9-18,87.1,72.3,68.2,71.0,67.6,65.8,93,86,57,29.81,29.74,13,3,0,0.00
2013-9-20,52.4,52.3,52.1,51.3,50.9,50.7,96,95,94,29.92,29.92,0,0,0,0.00
2013-9-21,80.7,64.4,49.8,59.4,54.1,49.0,98,73,41,29.94,29.79,5,1,0,0.00
2013-9-22,78.6,65.8,52.5,56.8,52.8,49.9,96,66,37,29.84,29.69,14,3,0,0.00
2013-9-23,79.6,68.1,54.8,56.0,52.8,50.1,85,60,41,29.72,29.59,16,5,0,0.00
2013-9-24,79.2,66.9,53.7,58.5,54.5,51.1,94,66,46,29.80,29.67,10,2,0,0.00
2013-9-25,83.9,66.7,50.3,61.1,55.5,49.5,98,71,38,29.82,29.62,10,2,0,0.00
2013-9-26,92.0,77.2,64.6,61.2,58.5,54.2,77,55,34,29.67,29.58,15,6,0,0.00
2013-9-27,87.8,77.1,66.2,65.9,60.9,57.4,77,59,42,29.73,29.61,18,5,0,0.00
2013-9-28,76.9,62.3,48.3,69.6,56.3,45.2,96,82,47,30.01,29.60,16,4,0,0.52
2013-9-29,75.1,58.5,43.5,55.0,46.4,42.5,99,70,35,30.02,29.83,6,1,0,0.00
2013-10-11,82.5,68.2,53.8,63.3,51.5,36.3,88,60,20,29.80,29.59,12,4,0,0.00
2013-10-12,72.0,57.9,46.1,46.6,41.6,37.0,82,58,28,30.15,29.80,14,3,0,0.00
2013-10-13,71.0,57.4,40.9,52.4,44.1,37.0,87,63,39,30.24,30.09,11,2,0,0.00
2013-10-14,63.7,61.1,56.3,63.1,56.3,47.1,98,85,58,30.09,29.71,15,4,0,0.44
2013-10-15,60.6,50.8,42.4,55.3,42.7,37.7,98,75,49,30.08,29.81,11,2,0,0.00
2013-10-16,56.1,45.1,35.7,42.7,38.5,34.1,96,79,53,30.11,29.97,6,0,0,0.00
2013-10-17,69.1,50.0,37.3,47.9,39.8,31.8,99,74,27,30.00,29.87,9,1,0,0.00
2013-10-18,46.1,38.0,30.8,40.3,35.2,29.8,98,90,79,30.13,29.98,13,3,0,0.35
2013-10-19,66.0,46.8,31.6,45.4,38.4,30.8,98,76,43,30.11,29.87,9,2,0,0.01
2013-10-20,71.2,54.1,37.1,49.1,42.9,34.4,93,68,41,29.88,29.72,11,2,0,0.00
2013-10-21,63.6,49.9,40.8,44.6,39.3,35.2,91,69,40,30.07,29.88,11,2,0,0.00
2013-10-22,71.8,55.8,45.2,46.4,42.3,39.5,82,63,37,30.03,29.92,11,2,0,0.00
2013-10-23,67.3,49.7,34.4,45.9,40.4,33.1,98,74,43,30.09,29.93,7,1,0,0.00
2013-10-24,53.7,44.1,32.7,42.1,35.2,30.1,91,73,44,30.36,30.06,10,3,0,0.00
2013-10-25,59.6,45.0,31.7,40.3,32.9,27.5,92,66,32,30.39,30.08,9,2,0,0.00
2013-10-26,64.0,51.7,36.0,52.5,39.2,25.7,90,66,24,30.11,30.03,12,2,0,0.02
2013-10-27,66.2,46.6,28.0,38.8,32.6,26.2,95,63,30,30.11,29.86,8,2,0,0.00
2013-10-28,65.4,56.1,47.2,58.3,51.4,33.1,98,85,56,29.98,29.88,11,4,0,0.00
2013-10-29,70.5,64.3,56.1,67.3,62.3,54.1,99,93,86,29.86,29.78,6,1,0,1.69
2013-10-30,74.8,58.1,49.5,70.0,57.1,48.9,99,97,84,29.85,29.61,11,3,0,1.18
2013-10-31,64.2,52.1,45.6,53.5,46.6,41.5,98,83,50,29.67,29.47,12,2,0,0.58
2013-11-1,63.8,50.2,40.1,45.9,40.8,37.5,91,72,46,30.04,29.67,10,1,0,0.00
2013-11-2,60.3,47.5,36.8,40.1,34.7,31.5,87,64,34,30.23,30.05,6,1,0,0.00
2013-11-3,52.9,45.6,42.3,42.0,35.4,33.2,73,67,62,30.07,29.75,16,5,0,0.00
2013-11-4,61.6,54.3,48.5,53.0,45.6,41.9,89,74,53,29.96,29.71,14,2,0,0.00
2013-11-5,60.5,54.1,39.2,59.9,52.7,37.3,98,95,88,30.00,29.73,11,4,0,0.11
2013-11-6,48.5,40.0,34.6,40.1,35.4,32.2,94,84,64,30.29,30.00,15,2,0,0.00
2013-11-7,59.9,45.0,33.0,40.3,36.3,31.3,95,74,42,30.40,30.22,7,1,0,0.00
2013-11-8,65.0,52.1,41.5,39.8,36.9,34.2,81,58,33,30.22,29.78,22,5,0,0.00
2013-11-9,63.6,47.6,39.3,45.7,39.6,36.0,89,75,50,30.20,29.90,5,1,0,0.00
2013-11-10,61.5,51.8,39.3,50.5,44.8,36.8,94,78,54,30.29,30.15,9,2,0,0.00
2013-11-11,57.2,52.4,48.1,53.1,49.4,46.6,97,89,84,30.15,30.08,7,1,0,0.00
2013-11-12,21.7,20.5,19.6,18.0,16.3,15.4,87,84,82,30.69,30.66,0,0,0,0.00
2013-11-13,49.7,35.1,19.3,28.1,20.8,15.0,86,58,41,30.66,30.13,14,4,0,0.00
2013-11-14,54.9,42.9,34.1,34.6,29.5,19.9,74,60,44,30.13,29.87,12,4,0,0.00
2013-11-15,60.0,47.6,34.6,48.0,39.8,31.3,92,75,51,29.89,29.58,14,3,0,0.00
2013-11-16,77.0,63.2,51.9,55.9,52.5,44.0,92,71,37,29.58,29.27,15,6,0,0.00
2013-11-17,67.8,55.6,42.1,43.4,31.1,16.0,75,42,16,30.01,29.28,14,3,0,0.00
2013-11-18,59.4,38.8,30.9,27.3,26.4,24.4,83,64,27,30.22,29.99,7,0,0,0.00
2013-11-19,51.9,50.7,49.8,28.8,27.8,26.7,44,41,38,29.82,29.80,12,7,20,0.00
2013-11-20,60.5,53.9,49.0,50.4,41.4,28.8,79,63,44,29.81,29.69,16,5,18,0.00
2013-11-21,52.7,36.6,24.0,51.0,34.1,19.9,97,91,79,30.46,29.79,19,7,27,0.24
2013-11-22,28.1,25.0,22.0,20.0,17.8,15.5,86,74,59,30.65,30.45,15,6,20,0.00
2013-11-23,33.8,28.7,20.7,20.9,17.0,13.1,73,61,52,30.74,30.61,14,5,19,0.00
2013-11-24,20.4,20.1,19.8,13.5,13.0,12.5,74,73,72,30.70,30.67,7,3,9,0.00
2013-11-26,25.4,22.9,19.3,14.9,13.7,11.9,73,67,63,30.44,30.37,3,1,4,0.00
2013-11-27,37.3,25.7,11.4,20.8,15.2,7.9,87,66,44,30.44,30.16,9,2,13,0.00
2013-11-28,47.6,33.0,20.2,29.5,24.5,18.1,93,72,48,30.39,30.14,8,2,12,0.00
2013-11-29,53.3,38.1,21.7,34.9,28.0,19.4,91,69,46,30.40,30.12,14,3,19,0.00
2013-11-30,60.5,41.1,29.1,38.5,33.1,27.4,97,76,44,30.12,30.02,7,1,12,0.00
2013-12-1,60.9,41.3,28.5,41.7,34.8,27.0,97,80,46,30.06,29.81,4,0,7,0.00
2013-12-2,57.4,40.7,29.9,42.8,36.3,28.9,98,86,56,29.81,29.54,4,1,7,0.00
2013-12-3,59.6,43.8,32.6,47.3,40.6,31.8,98,90,63,29.55,29.40,6,1,10,0.01
2013-12-4,43.8,29.5,21.4,43.0,25.1,9.9,98,84,60,30.08,29.45,12,3,16,0.00
2013-12-5,21.1,16.9,14.3,10.9,6.0,2.7,81,62,54,30.40,30.09,14,6,20,0.00
2013-12-6,19.8,14.0,7.8,9.5,1.5,-2.8,82,58,41,30.64,30.35,15,7,21,0.00
2013-12-7,21.3,13.1,3.6,5.6,1.5,-1.3,80,61,43,30.69,30.33,8,3,11,0.00
2013-12-8,22.9,21.6,16.7,20.6,18.9,13.0,92,89,84,30.21,29.94,4,1,10,0.00
2013-12-9,16.4,13.3,10.5,12.8,5.9,2.7,90,72,58,30.41,30.21,12,2,16,0.00
2013-12-10,42.3,23.7,9.8,22.2,11.7,3.0,80,62,33,30.38,30.13,11,2,12,0.00
2013-12-11,30.5,22.0,11.0,20.9,12.7,3.5,92,69,41,30.61,30.21,17,4,22,0.00
2013-12-12,45.9,28.7,10.7,23.6,16.5,4.9,77,62,40,30.58,30.14,13,4,17,0.00
2013-12-13,46.2,38.4,29.4,38.9,33.3,24.5,95,82,72,30.08,29.70,11,4,17,0.00
2013-12-14,39.8,27.8,18.0,30.8,21.2,15.0,93,77,52,30.22,29.87,12,3,20,0.00
2013-12-15,61.4,38.9,21.2,29.3,23.7,18.6,91,60,25,30.21,30.01,10,3,14,0.00
2013-12-16,64.9,42.5,30.4,30.4,24.9,21.4,73,53,25,30.09,29.97,3,1,5,0.00
2013-12-17,55.0,37.2,24.2,33.1,24.3,19.5,92,63,32,30.29,30.08,16,2,19,0.00
2013-12-18,66.3,47.3,31.7,38.4,31.8,22.5,80,57,34,30.19,29.69,14,4,21,0.00
2013-12-19,58.5,50.3,33.7,48.9,44.1,28.6,94,80,67,29.69,29.49,19,4,21,0.00
2013-12-20,33.4,21.0,16.3,27.9,16.4,12.9,92,82,74,29.95,29.64,15,3,21,0.00
2013-12-21,26.9,23.6,22.0,25.3,19.8,15.8,94,86,75,29.84,29.56,12,4,17,0.00
2013-12-22,25.9,17.0,2.0,22.5,14.3,-0.6,94,89,77,30.38,29.81,6,1,11,0.02
2013-12-23,17.3,12.3,0.8,13.7,9.0,-1.7,92,87,80,30.64,30.37,9,2,12,0.00
2013-12-24,30.1,22.7,16.6,29.4,21.2,13.7,97,94,88,30.56,30.13,12,4,16,0.00
2013-12-25,43.0,29.7,18.9,33.3,26.1,17.2,96,87,64,30.39,30.27,7,0,11,0.25
2013-12-26,45.1,30.2,18.7,34.2,25.6,17.2,97,84,65,30.35,30.19,9,1,15,0.05
2013-12-27,50.0,34.2,21.1,33.9,28.0,19.4,97,80,48,30.33,30.17,6,0,8,0.00
2013-12-28,52.1,39.4,29.8,38.0,32.5,26.4,91,77,57,30.17,29.80,9,2,13,0.00
2013-12-29,38.6,19.4,8.1,33.9,10.8,1.5,89,70,47,30.33,29.92,22,6,29,0.00
2013-12-30,36.7,21.1,6.2,21.5,12.1,3.4,91,69,50,30.33,30.22,12,2,13,0.00
2013-12-31,52.5,36.9,20.0,29.7,25.5,17.1,92,66,38,30.32,29.99,14,4,22,0.00
2014-1-1,35.6,24.4,11.5,28.0,19.9,8.1,90,83,72,30.36,29.88,18,4,21,0.00
2014-1-2,32.2,17.9,3.3,23.8,13.1,0.8,91,82,67,30.48,30.35,6,1,11,0.00